This is the latest recevied weather packets stored in our database for station/object W4MLN-3. If no packets are shown the sender has not sent any weather packets the latest 10 day(s).
| Time | Temp. | Humidity | Pressure | Rain* | Wind** | Luminosity | Snow |
|---|---|---|---|---|---|---|---|
| 1787509203 | 23.89° C | 51% | 1018.2 hPa | 0 mm | - | - | - |
| 1787508903 | 23.89° C | 52% | 1018.3 hPa | 0 mm | - | - | - |
| 1787508645 | 23.89° C | 50% | 1018.2 hPa | 0 mm | - | - | - |
| 1787508303 | 24.44° C | 49% | 1018.3 hPa | 0 mm | - | - | - |
| 1787508003 | 24.44° C | 50% | 1018.4 hPa | 0 mm | - | - | - |
| 1787507703 | 24.44° C | 51% | 1018.4 hPa | 0 mm | - | - | - |
| 1787507425 | 24.44° C | 52% | 1018.4 hPa | 0 mm | - | - | - |
| 1787507103 | 24.44° C | 49% | 1018.5 hPa | 0 mm | - | - | - |
| 1787506803 | 23.89° C | 51% | 1018.5 hPa | 0 mm | - | - | - |
| 1787506503 | 23.33° C | 50% | 1018.6 hPa | 0 mm | - | - | - |
| 1787506203 | 23.33° C | 54% | 1018.6 hPa | 0 mm | - | - | - |
| 1787505904 | 23.33° C | 53% | 1018.7 hPa | 0 mm | - | - | - |
| 1787505603 | 22.78° C | 53% | 1018.7 hPa | 0 mm | - | - | - |
| 1787505303 | 23.33° C | 56% | 1018.7 hPa | 0 mm | - | - | - |
| 1787505003 | 22.78° C | 54% | 1018.7 hPa | 0 mm | - | - | - |
| 1787504703 | 23.33° C | 53% | 1018.7 hPa | 0 mm | - | - | - |
| 1787504403 | 22.78° C | 55% | 1018.6 hPa | 0 mm | - | - | - |
| 1787504103 | 22.78° C | 56% | 1018.8 hPa | 0 mm | - | - | - |
| 1787503803 | 22.78° C | 54% | 1018.9 hPa | 0 mm | - | - | - |
| 1787503503 | 22.78° C | 56% | 1018.8 hPa | 0 mm | - | - | - |
| 1787503203 | 22.78° C | 54% | 1018.8 hPa | 0 mm | - | - | - |
| 1787502924 | 22.78° C | 54% | 1018.9 hPa | 0 mm | - | - | - |
| 1787502603 | 23.33° C | 53% | 1019 hPa | 0 mm | - | - | - |
| 1787502303 | 23.33° C | 53% | 1019 hPa | 0 mm | - | - | - |
| 1787502003 | 23.33° C | 61% | 1018.9 hPa | 0 mm | - | - | - |
* Rain latest hour (hover to see other rain measurements)
** Current wind speed in m/s (hover to see current wind gust speed)